STARLINK-1346 (45560 NORAD) Tracking and Keplerian Element Data

This shows tracking and keplerian element data for the satellite.

Feedback or suggestion? Click here.




ElementValue
Catalog45560
NameSTARLINK-1346
Epoch Orbit1267
Epoch Day190.16667824
Epoch Year2020
RAAN24.2463
Inclination52.9993
Eccentricity0.0004681
Argument of Perigee359.1235
Mean Anonmoly225.3977
Mean Motion15.62752295
Decay Rate-8.63E-06
L11 45560U 20025AF 20190.16667824 -.00000863 00000-0 -35412-5 0 9990
L22 45560 52.9993 24.2463 0004681 359.1235 225.3977 15.62752295 12672

Live tracking and technical data element details for STARLINK-1346 (NORAD 45560). STARLINK-1346 can be tracked NOW for your location showing map with azimuth and elevation plus other details from your city location.

Track the satellite on the map from your city or location and see movement details for azimuth, elevation, latitude, longitude, range, height, and movement on the map or in text.







IsCatalogInMostPopularTable: catalog: 45560, numindb: 15
Update: records affected: 1



GetName: 45560 STARLINK-1346

Hit Count: updated at: Fri, 10 Jul 2020 02:18:01 GMT